Theta_e
319 323 326 326 327 327 333 333 331 335 333 323 320 322 318 321 324 322 321 320 322 320 320 319 318 318 317 318 317 317 317 319 321 331 333 321 320 321 323 326 325 327 331 334 336 338 339 340 341 341 340 339 339 338 339 339 340 341 341 341 341 341 341 342 341 341 341 341 342 342 342 342 343 342 342 342 341 341 341 340 339 339 338 338 337 336 337 338 338 339 338 338 337 338 338 338 338
321 325 329 328 327 329 337 338 338 335 329 321 317 320 316 322 325 320 321 320 321 319 321 321 318 316 315 316 315 316 317 318 319 323 322 318 319 321 324 325 325 326 326 328 329 330 330 331 335 336 336 338 339 338 339 339 340 340 340 341 340 340 340 341 341 340 341 341 341 341 341 342 342 342 342 341 342 341 341 340 339 339 338 337 338 338 338 338 338 338 338 338 337 337 338 338 337
325 326 328 327 328 330 340 341 337 332 326 321 317 322 320 320 321 320 322 319 321 320 320 319 318 316 315 318 315 317 318 317 318 320 321 319 319 320 322 320 321 324 324 326 326 327 327 327 328 328 328 331 333 334 336 338 339 339 340 340 340 341 340 340 340 341 340 339 340 340 340 341 341 342 341 340 341 341 340 340 339 338 336 335 337 339 339 339 339 338 338 337 337 336 337 338 337
324 326 326 327 335 337 348 344 338 334 322 322 319 322 323 319 320 320 321 318 319 321 318 317 317 315 316 319 316 318 318 316 316 318 320 317 317 318 317 316 317 319 321 323 324 326 327 329 328 328 327 327 327 327 329 330 333 335 338 339 339 340 340 340 340 341 341 340 339 340 340 340 341 342 341 341 341 340 340 339 339 339 336 335 337 339 339 339 339 338 338 337 336 333 332 335 337
321 324 324 327 339 338 342 336 336 337 323 326 322 319 324 319 320 319 318 317 317 320 318 316 317 314 315 315 316 319 316 316 315 314 317 315 314 313 312 313 313 314 315 316 318 319 320 323 325 327 328 328 328 328 327 326 328 330 333 336 338 339 338 339 339 340 341 341 340 340 340 340 340 340 340 340 340 340 339 339 339 338 337 334 335 337 338 339 340 338 338 338 338 335 332 333 334
320 323 325 325 328 329 337 327 322 327 321 328 323 317 323 319 318 319 317 317 317 317 316 317 316 314 314 312 314 315 313 316 315 313 314 313 310 308 308 309 310 310 310 311 312 312 312 314 316 319 322 324 326 327 328 328 328 328 329 331 334 336 337 337 338 339 340 340 340 340 340 340 339 339 339 339 339 339 339 339 339 339 338 334 332 334 335 336 339 339 338 339 339 339 337 336 336
321 322 330 331 326 331 341 327 319 321 317 322 323 319 321 318 318 319 318 317 316 314 314 316 314 315 315 313 313 311 310 312 312 312 312 311 310 307 306 306 307 307 307 309 309 310 310 310 310 312 315 318 320 323 325 327 328 329 329 329 330 332 334 335 337 338 339 339 339 339 340 340 338 338 339 338 338 339 339 339 338 338 338 335 332 332 333 334 337 338 338 338 338 339 338 337 337
322 320 330 340 336 339 341 328 323 324 318 317 322 322 320 318 318 319 318 318 317 313 312 313 313 316 314 312 313 310 308 309 310 310 308 307 308 307 305 304 306 306 307 307 308 309 309 308 308 310 312 314 317 319 321 323 325 326 327 328 329 329 330 331 333 335 336 338 339 339 338 339 339 337 337 337 337 338 338 338 338 338 337 336 333 332 332 333 335 336 336 337 337 337 337 338 338
321 319 327 336 336 339 333 323 320 320 318 317 318 320 321 318 318 319 318 316 314 313 313 313 315 317 313 311 311 309 308 308 309 307 305 305 305 305 304 303 305 305 306 306 306 308 308 306 307 311 312 312 314 315 317 318 319 321 324 325 326 327 328 328 329 330 332 334 336 336 337 340 339 338 337 337 337 338 337 338 338 337 337 336 334 334 333 333 333 333 334 335 336 336 337 338 338
324 324 328 335 336 333 325 320 320 318 317 318 316 316 318 317 317 317 316 315 312 313 314 312 313 315 312 310 310 309 307 307 307 305 304 304 304 304 304 303 303 304 305 304 305 306 307 306 305 307 309 308 309 311 313 314 315 317 318 320 322 324 325 326 327 327 329 329 330 332 333 336 337 337 338 338 338 338 337 337 337 336 336 336 335 335 334 334 333 333 333 333 333 335 336 337 338
330 333 338 341 333 324 320 321 318 317 317 317 317 316 317 317 317 315 315 314 312 313 313 313 314 311 310 310 310 307 305 306 306 305 304 304 304 304 304 304 303 302 303 303 303 304 306 305 303 302 302 303 303 307 310 310 311 312 313 315 317 319 321 323 325 326 326 327 328 329 330 331 332 334 335 337 338 337 336 337 337 336 336 336 335 333 332 334 334 334 334 333 332 332 333 334 336
326 335 350 344 329 318 319 324 318 318 320 319 317 316 317 318 318 313 314 314 313 315 312 313 315 312 311 311 309 305 304 304 304 304 303 303 303 304 303 303 302 301 301 302 302 302 303 302 302 301 300 300 299 302 305 307 307 307 309 311 312 313 315 317 320 322 324 325 326 327 328 330 331 332 332 333 334 334 334 336 337 337 336 335 334 333 332 333 334 335 335 334 333 331 331 332 334
329 333 346 331 326 323 321 323 319 323 323 320 317 315 317 317 317 313 315 315 313 316 313 311 313 313 312 309 308 306 304 303 303 302 302 302 302 302 303 302 301 300 300 300 300 301 301 300 300 299 300 300 298 298 299 302 303 302 303 305 307 307 308 310 313 316 319 322 324 325 326 327 329 330 330 331 332 333 333 334 336 336 336 335 334 334 333 332 333 335 335 333 333 331 329 329 332
328 334 340 324 327 326 321 322 320 324 319 318 318 315 317 315 315 313 317 318 313 313 310 309 310 312 311 309 309 306 304 302 302 301 301 301 300 301 301 302 300 299 298 298 298 299 299 299 298 297 298 299 297 297 297 297 299 299 299 299 301 301 303 305 307 309 312 315 318 321 323 324 326 326 327 328 329 331 332 333 334 335 335 334 334 334 333 333 333 334 334 332 332 331 329 328 329
322 340 345 330 332 324 319 321 323 327 317 316 318 315 316 312 313 313 316 318 312 309 309 308 308 312 313 311 308 304 303 302 301 301 300 300 298 299 299 300 299 297 297 298 298 297 298 298 297 297 297 297 297 296 296 296 297 298 297 296 297 298 299 301 302 304 307 310 312 315 317 319 321 322 324 325 326 327 329 331 332 334 334 334 334 334 334 332 332 334 334 332 332 332 331 329 328
329 347 344 332 331 320 318 321 323 324 316 317 316 315 315 310 311 311 311 312 311 307 308 308 306 309 309 308 306 303 302 301 301 300 299 299 298 298 297 298 297 297 297 298 299 298 298 298 297 298 296 297 296 295 295 295 296 297 296 296 296 296 297 298 298 299 302 305 307 309 311 314 315 317 319 321 323 324 325 328 330 332 333 333 333 333 334 333 333 334 333 332 332 331 331 330 329
340 350 341 334 328 318 318 320 323 320 315 317 315 315 315 309 309 308 307 307 308 305 304 305 304 305 305 304 304 302 302 301 300 300 299 299 298 298 297 297 297 297 296 297 299 298 298 298 298 298 297 296 296 295 295 295 295 296 296 295 295 295 296 296 297 297 298 299 300 302 306 311 314 315 316 317 319 321 323 324 326 329 332 332 333 333 333 334 334 333 333 332 332 331 331 330 329
346 343 330 328 325 318 317 318 321 320 315 316 315 316 315 311 309 308 308 305 305 304 303 303 302 303 302 302 302 301 301 300 300 300 299 299 298 298 298 297 297 297 297 297 298 297 297 297 298 297 296 295 295 295 295 295 296 297 296 296 295 295 295 296 297 297 295 295 297 298 301 307 313 315 316 317 318 320 321 322 323 325 328 330 332 332 332 333 334 333 334 333 332 331 331 331 330
337 335 325 328 330 318 315 318 317 317 316 316 316 315 314 313 310 309 310 306 304 305 303 302 303 302 302 301 301 301 300 300 300 300 300 299 298 298 298 298 297 297 297 297 297 296 296 296 297 297 296 295 295 295 295 295 296 296 296 295 295 295 295 296 297 296 295 295 297 301 302 303 307 311 314 317 318 319 320 321 322 323 324 325 328 331 332 333 334 334 334 334 333 332 331 332 331
327 328 323 331 333 317 313 318 316 317 317 316 315 314 314 312 310 311 311 307 306 307 304 303 303 302 302 301 300 300 300 299 299 299 299 299 298 298 298 298 298 297 297 297 297 296 295 295 296 296 296 295 295 295 295 295 295 295 296 295 295 296 295 296 296 296 295 295 297 302 303 301 300 301 306 313 317 318 319 320 321 322 323 323 323 327 330 331 333 334 334 334 333 332 332 332 332
321 321 323 328 324 317 315 315 317 318 316 318 316 314 314 311 311 310 309 310 308 305 304 304 303 302 303 302 300 299 299 299 298 298 299 299 298 298 297 297 298 297 296 297 297 296 295 294 295 296 296 295 294 295 294 294 295 295 295 295 295 295 295 296 296 295 296 295 297 301 301 298 297 297 303 310 314 316 318 319 320 321 322 323 323 324 327 329 331 333 334 334 334 333 332 332 332
317 317 325 327 318 315 315 315 317 316 315 318 315 314 313 312 311 307 309 315 312 306 305 304 302 301 302 301 299 299 298 298 298 298 298 298 298 298 297 297 297 297 296 296 296 296 295 294 295 295 295 295 294 294 294 294 294 295 295 295 295 295 295 295 295 295 295 295 296 298 297 296 296 298 303 308 310 310 312 313 315 317 318 321 323 324 325 326 329 332 333 333 333 333 332 332 332
317 318 321 321 316 315 315 315 317 317 317 315 313 313 313 313 311 307 309 314 310 306 304 302 301 300 300 299 299 300 299 297 297 297 297 297 298 298 297 296 297 296 295 295 296 295 294 294 294 295 295 294 294 294 294 294 294 294 294 294 294 294 295 295 295 295 295 295 296 296 296 296 296 298 301 302 303 303 303 306 309 311 313 316 319 323 324 325 327 330 331 332 333 333 333 332 332
316 320 320 317 315 315 315 315 316 317 316 312 311 312 314 316 312 308 307 306 304 303 301 300 299 299 298 298 298 298 298 297 297 297 296 297 297 297 297 296 296 296 295 295 295 295 294 294 294 294 294 294 294 294 294 294 294 294 294 294 294 294 294 294 294 294 295 295 295 296 296 296 296 297 298 298 298 298 301 306 307 306 308 311 313 317 321 323 325 328 330 331 332 333 332 333 332
318 320 320 317 316 316 315 316 318 317 313 312 313 314 315 314 311 308 305 302 302 301 299 298 298 298 298 299 299 296 296 297 298 297 296 296 296 297 297 296 296 295 294 294 294 294 293 294 294 294 293 293 293 293 293 293 293 294 293 294 294 293 293 293 293 294 294 295 295 295 296 296 296 296 297 297 297 297 300 304 304 303 304 307 310 314 318 321 323 325 328 330 331 332 333 332 332
318 319 317 316 317 317 315 314 317 316 312 313 316 316 312 309 310 308 303 302 301 300 300 299 298 299 299 299 298 295 295 296 297 297 297 296 296 296 296 296 296 295 294 294 294 293 293 294 293 293 293 293 293 293 293 293 293 293 293 293 293 293 293 293 293 293 293 294 294 295 295 296 296 296 296 296 296 297 299 301 301 302 303 304 308 312 315 318 319 321 325 328 329 331 332 332 332
316 317 315 315 315 315 315 314 315 314 311 314 316 317 312 307 311 311 303 301 300 299 300 299 299 299 299 299 298 295 295 296 297 297 296 296 295 295 295 295 295 294 294 294 293 293 293 293 293 293 293 293 293 293 293 293 293 293 293 293 292 292 292 292 292 293 293 293 293 294 294 295 295 296 296 296 296 296 298 299 300 301 300 300 303 308 312 314 317 318 320 325 328 329 330 331 331
314 314 314 316 317 315 315 313 314 313 310 314 317 314 310 307 312 313 305 301 300 299 299 299 299 300 299 300 299 296 295 296 297 296 296 296 295 294 295 295 294 294 293 293 293 293 293 293 293 293 293 293 293 293 293 293 293 293 293 292 292 292 291 292 292 292 292 292 293 293 293 293 294 295 295 296 296 296 297 298 299 300 299 298 300 304 308 310 313 316 317 320 325 327 328 330 330
314 314 313 318 320 318 316 313 313 312 311 314 314 311 310 309 312 311 303 301 300 299 300 299 299 300 300 300 300 297 295 296 296 296 296 295 294 294 294 294 294 294 293 293 293 293 293 293 293 293 293 293 292 292 292 292 292 292 292 292 291 291 291 291 291 291 292 292 292 292 292 292 293 293 294 295 295 295 296 297 298 298 298 298 299 300 303 306 310 314 316 318 322 325 326 327 328
313 312 312 317 320 321 317 313 313 311 313 315 312 313 314 312 310 306 302 301 300 300 299 299 299 299 299 299 299 298 296 295 296 296 296 295 294 293 293 293 293 293 293 293 293 293 293 293 293 293 293 292 292 292 292 292 292 292 292 291 291 291 290 290 291 291 291 292 292 292 292 292 292 292 293 293 294 295 296 296 297 298 298 298 298 299 300 304 309 312 314 317 320 323 325 326 326
314 311 318 321 315 324 324 313 313 311 312 314 311 314 315 313 309 304 302 301 300 300 299 298 299 298 298 298 299 299 297 295 296 296 295 294 293 293 293 293 293 293 293 293 293 293 292 293 293 293 292 292 292 292 292 292 292 291 291 291 291 290 290 290 290 290 291 291 291 291 291 291 291 291 292 292 293 294 296 296 297 297 297 297 298 298 299 301 306 310 312 314 318 322 325 325 326
319 312 325 328 315 326 329 312 313 313 311 312 311 315 315 313 310 303 301 301 300 300 299 298 298 298 298 298 298 300 298 296 296 296 294 293 293 292 292 292 292 292 293 292 292 292 292 292 293 292 292 292 291 292 291 291 291 291 291 291 290 290 289 289 289 290 290 291 291 290 290 290 290 290 290 291 292 294 295 296 297 297 297 297 298 298 298 300 303 308 310 311 315 319 323 325 326
332 318 320 329 319 319 321 312 314 314 312 312 311 315 315 314 309 303 302 301 300 300 299 298 298 298 298 297 297 299 299 297 296 295 294 293 292 292 292 292 292 292 292 292 292 292 292 292 292 292 292 291 291 291 291 291 291 290 290 290 290 289 289 289 289 289 289 289 289 289 288 288 288 288 289 289 290 292 294 295 296 297 297 298 298 297 298 299 301 305 307 308 311 315 320 324 325
332 326 319 323 320 314 315 314 313 312 312 312 312 313 313 312 307 303 302 300 300 300 299 298 298 297 297 296 297 299 299 299 297 294 293 293 292 292 292 292 292 292 292 292 292 292 292 292 292 292 291 291 291 291 291 290 290 290 289 289 289 288 288 288 288 288 288 287 287 286 286 287 287 288 288 289 290 291 293 295 296 297 297 298 298 297 298 298 299 302 305 305 307 309 314 321 324
319 321 317 317 316 312 313 313 312 313 313 312 312 312 311 310 306 303 303 300 300 300 299 298 297 297 297 297 298 298 300 300 297 294 293 293 292 292 292 292 292 292 292 292 292 292 292 292 291 291 291 291 291 290 290 290 289 289 289 288 288 288 288 287 287 286 286 286 285 285 285 286 287 288 288 289 290 291 293 295 296 296 297 297 298 298 297 298 298 300 301 303 304 305 307 314 322
314 314 315 314 315 312 311 310 311 313 312 312 312 311 311 310 308 304 302 301 300 300 299 298 297 297 297 297 298 298 300 299 296 293 293 292 292 292 292 292 292 292 292 292 292 292 292 292 291 291 291 290 290 290 289 289 289 288 288 288 287 287 287 286 286 285 285 285 285 285 285 286 286 286 286 287 289 291 292 293 294 295 296 297 298 297 297 298 298 298 300 302 303 303 303 307 317
312 312 314 313 313 312 309 309 311 311 311 313 312 310 310 310 309 305 303 301 300 300 299 298 297 296 297 297 298 299 300 298 295 293 292 292 292 292 292 292 292 292 292 291 291 292 292 291 291 290 290 290 290 290 289 289 288 288 287 287 286 286 286 285 285 285 284 284 284 284 285 285 284 284 284 285 286 288 290 292 293 294 296 297 298 297 297 298 297 297 299 302 303 302 302 303 310
310 312 314 313 313 311 309 309 310 308 310 314 313 310 309 309 308 305 303 301 300 300 299 298 297 296 297 297 297 298 298 296 295 293 292 292 292 292 292 292 292 292 292 291 291 291 291 291 290 290 290 290 290 289 288 288 288 287 287 286 286 285 285 285 284 284 284 284 284 284 283 283 283 283 284 284 284 286 287 289 292 294 295 296 296 297 298 298 297 297 299 301 302 301 301 301 304
311 312 313 314 313 312 312 312 310 307 309 314 314 311 308 309 308 305 303 301 301 300 299 299 297 296 296 296 297 298 297 296 296 294 292 292 292 292 292 292 292 292 291 291 291 291 291 290 290 290 290 290 289 289 288 287 287 287 286 286 285 285 284 284 284 284 284 283 283 283 283 283 283 283 283 283 284 286 287 288 289 292 294 295 296 297 298 298 297 297 298 300 301 301 301 301 301
313 312 313 314 313 313 314 314 313 311 310 312 313 310 307 308 308 307 304 301 301 301 300 300 298 296 296 296 297 297 297 296 296 296 293 292 292 292 292 292 292 292 291 291 291 291 290 290 290 290 290 289 289 288 288 287 287 286 286 285 285 284 284 284 284 283 283 283 282 282 282 282 282 282 283 283 284 285 285 286 287 289 291 294 295 297 298 297 297 297 297 300 301 301 300 300 300
321 318 314 314 314 313 313 313 312 312 314 314 310 308 309 309 308 308 305 301 301 301 300 299 298 297 297 297 297 297 297 297 296 297 295 292 292 292 292 292 292 291 291 291 291 290 290 290 290 290 290 289 288 288 287 287 286 286 285 285 284 284 283 283 283 283 282 282 282 282 281 281 281 282 282 283 283 283 283 284 286 288 290 292 295 297 297 297 298 297 297 299 300 300 300 300 300
324 322 316 315 314 314 314 314 312 311 316 314 309 310 313 310 308 308 306 302 301 300 299 298 297 296 297 297 297 297 298 298 297 296 294 292 291 292 291 292 291 291 291 290 290 290 290 290 290 290 289 289 288 288 287 287 286 285 284 284 283 283 283 283 282 282 282 281 281 281 281 281 281 281 282 282 282 282 282 283 285 287 288 291 293 295 297 298 297 297 297 299 300 299 300 300 299
318 319 317 316 313 312 312 311 312 314 314 310 307 310 311 308 308 309 308 304 301 300 298 297 296 296 296 296 296 296 297 297 297 295 293 291 291 291 291 292 291 291 291 290 290 290 290 290 290 290 289 289 288 287 287 286 286 285 284 283 283 283 282 282 282 282 281 281 281 281 280 280 280 280 281 281 281 281 282 282 284 285 287 290 292 294 296 297 297 297 296 298 299 299 298 299 299
320 316 314 313 310 311 311 308 310 313 311 308 308 308 307 307 308 309 307 305 302 299 298 297 296 296 296 295 295 296 296 296 296 296 294 292 291 291 291 291 291 291 290 290 290 290 290 290 290 289 289 288 288 287 286 286 285 284 284 283 283 282 282 282 282 281 281 280 280 280 280 280 280 280 280 280 280 280 280 281 281 283 285 289 292 294 295 297 298 296 295 297 298 298 298 298 299
320 313 309 308 307 308 309 308 309 309 307 307 308 307 307 310 311 308 303 303 303 300 298 297 296 296 295 295 295 295 296 296 296 296 294 292 291 291 291 291 291 291 290 290 290 290 290 290 289 289 289 288 287 287 286 285 285 284 283 283 282 282 282 281 281 281 280 280 280 279 279 279 279 279 279 279 279 279 279 279 280 281 283 286 290 292 294 296 297 296 295 296 297 297 298 298 298
313 310 308 309 310 308 307 306 308 309 307 308 309 307 308 313 314 309 302 303 304 301 299 297 296 296 295 294 294 294 294 296 296 294 291 291 291 291 291 291 291 290 290 289 289 289 289 289 289 289 288 288 287 286 286 285 284 283 283 282 282 281 281 281 280 280 280 279 279 279 279 279 279 279 279 278 278 278 278 279 280 281 282 284 288 291 292 294 296 296 295 295 296 296 297 298 298
309 311 312 314 314 311 311 310 309 311 311 311 311 309 309 312 313 309 307 308 306 303 301 298 296 295 294 293 293 293 293 295 296 294 290 290 291 291 291 291 290 290 289 289 289 289 289 289 288 288 287 287 286 286 285 284 284 283 283 282 281 281 281 280 280 280 279 279 279 279 279 278 278 278 278 278 277 277 278 278 279 279 281 283 287 290 291 291 293 295 296 295 295 296 296 298 298
311 314 314 315 317 315 315 314 312 313 318 315 310 307 307 310 312 309 307 307 304 304 303 299 297 295 293 293 292 292 294 294 295 295 293 291 290 291 291 290 290 289 289 289 289 289 289 289 288 287 287 286 286 285 285 284 283 283 282 282 281 280 280 280 280 279 279 279 278 278 278 278 278 278 277 277 277 277 277 277 278 278 280 283 286 289 290 290 291 293 295 296 295 295 295 297 298
313 314 312 313 319 321 319 317 315 317 319 312 303 304 306 307 309 309 308 305 303 304 302 299 298 295 293 292 291 292 294 294 295 295 296 294 290 289 290 290 289 289 289 289 289 289 289 288 287 287 286 286 285 285 284 283 283 282 282 281 280 280 280 279 279 279 278 278 278 278 278 277 277 277 277 277 276 276 276 276 277 278 279 282 284 286 288 290 290 291 293 296 296 295 295 295 296
310 312 313 315 320 321 320 320 320 320 320 310 300 302 307 307 307 307 307 304 302 303 302 300 298 295 293 292 291 293 294 294 295 295 298 297 290 288 289 290 289 289 289 289 289 289 288 287 287 286 286 285 285 284 284 283 282 282 281 281 280 279 279 279 279 278 278 278 278 278 277 277 277 277 276 276 276 276 276 276 276 277 279 280 281 284 287 288 288 289 291 295 296 295 295 295 295
308 311 314 317 319 320 321 321 322 320 319 312 302 303 311 311 307 303 300 297 297 300 300 298 297 294 293 292 292 293 293 294 296 296 297 294 288 289 290 289 289 289 288 289 289 288 287 287 286 286 285 285 284 284 283 282 282 281 281 280 279 279 279 278 278 278 278 278 277 277 277 277 276 276 276 276 275 275 275 275 276 276 277 278 280 282 284 286 286 286 289 293 296 295 294 295 295
308 307 310 313 316 317 318 316 317 313 311 309 305 307 311 307 302 297 295 294 294 296 296 295 294 292 292 292 292 292 292 293 295 296 297 293 288 289 290 289 289 288 288 289 288 287 287 286 286 285 285 284 284 283 282 282 281 280 280 279 278 278 278 278 277 277 277 277 277 276 276 276 276 276 275 275 275 275 275 275 275 276 277 277 279 281 282 283 284 285 287 291 294 295 294 294 295
308 305 309 312 311 311 312 312 311 308 308 311 309 309 310 308 304 296 294 295 293 293 293 292 293 292 292 292 291 292 292 294 295 296 297 292 288 289 289 288 288 288 288 288 287 287 286 285 285 284 284 283 283 282 282 281 280 279 279 278 278 277 277 277 277 277 277 276 276 276 276 276 275 275 275 275 275 275 274 275 275 275 276 277 278 280 281 282 283 284 286 289 292 294 294 294 294
310 309 310 309 307 306 308 311 310 307 309 312 311 310 310 313 309 297 293 296 293 291 292 292 292 292 292 291 291 292 293 294 295 295 294 290 287 288 289 288 288 288 288 288 287 286 285 285 284 284 283 283 282 281 281 280 279 278 278 277 277 277 276 276 276 276 276 276 276 276 275 275 275 275 275 275 274 274 274 274 274 275 275 277 278 279 279 281 283 284 285 287 290 293 294 294 294
307 309 306 308 311 309 308 310 311 311 313 314 313 312 311 313 311 302 297 297 294 292 291 292 292 291 291 292 291 292 293 294 294 294 295 291 287 288 288 288 288 288 287 287 286 285 285 284 283 283 282 282 281 280 280 279 278 278 277 277 276 276 276 275 275 275 275 275 275 275 275 275 275 275 274 274 274 274 274 274 274 275 275 276 277 277 279 280 282 283 284 286 289 292 294 293 294
301 303 302 304 308 310 309 308 309 313 314 315 315 315 314 313 312 309 302 296 294 292 291 292 292 291 291 291 291 292 292 294 294 294 296 293 288 288 288 288 288 287 287 286 285 284 284 283 283 282 281 281 280 279 278 278 277 277 276 276 275 275 275 275 275 275 275 275 275 275 275 275 274 274 274 274 274 274 274 274 274 274 275 275 276 277 279 280 280 282 283 285 288 291 293 293 294
302 302 303 302 302 307 308 305 306 309 312 313 314 314 315 311 307 309 305 297 294 293 291 292 292 291 291 291 291 292 292 293 294 294 295 291 287 287 288 287 287 287 286 285 284 283 283 282 282 281 280 280 279 278 277 277 276 276 275 275 275 274 274 274 274 274 274 274 274 274 274 274 274 274 274 274 274 273 273 274 274 274 275 275 276 276 277 278 280 281 283 284 286 290 292 293 293
306 305 305 303 303 306 308 307 306 306 308 312 313 314 315 308 302 304 305 299 294 293 292 292 292 291 291 291 292 292 293 294 294 294 294 290 286 287 288 287 287 286 285 284 283 283 282 281 281 280 279 279 278 277 276 276 275 275 274 274 274 273 273 273 273 274 274 274 274 274 274 274 273 273 273 273 273 273 273 273 273 274 274 274 274 275 275 277 279 280 281 282 284 288 292 293 293
Wind_Speed
3 4 4 2 1 2 3 3 2 2 4 3 2 2 1 1 2 3 2 1 1 2 3 1 3 5 9 9 10 11 8 4 2 3 3 6 10 16 23 27 27 25 24 22 20 19 17 16 13 12 9 8 8 9 11 11 10 11 12 12 13 14 14 14 13 13 13 13 14 13 12 12 11 11 10 10 10 10 11 11 11 12 13 14 15 14 11 10 11 11 11 12 12 13 13 13 13
4 3 2 1 0 1 0 2 3 3 5 3 2 2 1 3 4 4 4 3 3 3 2 3 8 10 13 11 9 13 11 8 5 3 3 10 11 15 24 25 26 26 25 23 22 21 21 19 15 13 10 9 8 10 11 11 11 11 13 13 14 14 15 16 15 15 15 15 16 15 14 14 13 13 13 11 11 11 12 12 12 12 13 14 13 13 12 12 11 12 12 12 12 13 12 12 13
4 3 1 0 1 2 1 3 3 2 5 3 2 2 1 2 2 5 6 5 6 4 3 6 10 6 6 8 8 10 4 4 9 3 2 14 12 15 23 23 26 26 25 25 23 23 23 22 19 15 13 11 10 10 11 11 11 11 12 13 14 14 15 16 16 17 17 17 17 17 17 16 15 15 15 13 11 12 13 14 13 14 14 14 13 13 13 13 12 12 13 13 12 13 12 12 13
2 0 1 0 1 3 3 4 2 4 4 3 1 4 2 3 5 6 6 3 5 3 4 6 7 4 7 10 5 6 3 2 9 8 3 15 15 17 23 24 27 27 27 27 25 25 24 23 21 20 18 17 16 14 13 12 11 11 12 12 13 14 15 16 16 17 18 18 18 18 18 17 17 16 17 15 12 13 14 15 15 15 15 15 14 13 14 14 13 13 13 13 12 12 11 12 14
2 1 1 1 2 1 3 3 2 4 3 5 2 4 5 5 5 5 4 5 3 5 6 5 4 1 8 7 3 3 4 4 9 15 8 15 22 23 25 25 28 30 31 30 29 29 27 25 23 22 21 20 19 19 18 17 15 13 13 13 13 15 15 16 18 18 18 18 17 18 18 17 17 18 18 16 14 14 15 16 16 16 16 17 16 15 15 14 14 14 14 13 13 13 12 13 14
3 2 1 2 2 1 3 3 4 2 3 5 3 4 6 6 5 6 2 2 3 8 7 7 6 5 7 4 5 5 5 3 7 14 11 16 25 27 28 28 30 32 32 31 30 30 30 29 27 25 23 22 21 21 21 21 21 19 17 14 14 15 16 17 18 18 18 17 17 18 19 18 18 18 18 17 16 16 16 16 16 17 16 17 18 17 16 15 15 15 14 14 15 15 14 14 15
3 2 2 3 1 2 5 4 4 1 1 5 5 5 6 6 5 7 3 1 4 8 9 8 9 10 5 2 5 8 15 12 6 11 15 19 25 27 29 29 31 33 32 32 31 31 31 30 29 27 25 24 24 24 24 23 23 22 21 20 18 17 17 17 18 19 18 17 18 19 20 20 19 18 18 18 18 18 18 18 18 18 18 18 18 18 18 17 17 16 15 16 16 15 16 16 16
1 1 1 4 2 3 5 3 3 3 0 1 3 5 6 4 5 5 3 2 3 5 7 7 9 11 4 3 5 8 19 17 11 16 21 23 25 26 29 29 31 32 32 32 32 31 31 32 32 30 28 26 25 25 25 25 25 23 23 22 21 21 20 18 18 19 19 18 18 20 20 20 20 20 20 20 19 19 20 19 20 20 20 19 19 18 19 19 18 17 17 16 17 16 16 17 17
1 2 1 4 2 3 3 2 1 2 0 1 2 3 4 2 4 5 4 4 4 5 5 4 6 9 4 7 6 5 15 16 16 22 23 25 26 27 29 30 31 31 31 31 31 31 32 33 34 32 31 29 28 27 26 26 26 25 24 24 24 23 22 21 20 19 19 19 18 20 20 20 22 22 21 21 20 20 20 19 20 21 21 21 20 19 19 19 19 19 18 17 17 17 17 17 18
2 2 2 3 3 3 2 1 1 1 2 3 2 3 2 2 4 5 6 6 6 7 5 4 8 10 8 6 4 3 10 12 17 22 23 25 26 28 30 30 30 30 31 31 30 31 31 32 33 33 32 31 30 29 28 28 28 27 27 26 25 24 23 23 22 22 21 20 19 20 20 20 23 22 22 21 20 19 19 20 21 21 22 21 21 21 20 20 21 21 21 20 19 19 19 18 18
2 4 3 4 4 3 1 3 2 2 2 3 3 5 2 3 5 5 5 6 6 7 4 5 8 8 7 5 1 5 10 13 16 17 20 23 25 27 28 29 29 30 30 30 30 31 31 31 31 32 32 32 31 30 29 29 28 28 28 28 27 26 25 24 23 23 22 22 21 20 20 20 22 23 22 22 20 20 19 20 22 23 23 23 23 23 23 21 22 23 22 22 21 21 21 20 20
2 4 4 4 2 2 3 5 4 3 4 3 2 5 0 4 6 4 5 6 4 6 3 4 5 6 6 4 0 6 13 15 15 16 19 22 24 25 26 28 29 30 30 30 30 30 31 31 31 31 31 31 31 31 30 29 29 28 28 28 27 27 26 26 25 24 23 23 23 22 21 21 22 24 24 24 24 24 23 21 22 24 25 26 26 25 25 24 24 24 24 24 24 24 23 22 21
3 1 5 2 2 3 4 5 4 2 3 1 2 3 2 5 5 5 6 7 6 6 4 6 5 6 5 3 1 4 9 13 15 19 20 22 23 24 26 27 29 30 30 30 31 30 30 31 31 32 31 31 32 31 30 30 30 29 29 28 28 28 28 27 27 26 25 24 24 23 22 22 22 23 24 25 26 26 26 24 22 24 26 28 28 28 27 27 26 25 25 25 25 25 25 24 23
2 2 4 2 1 2 4 3 2 3 1 2 2 3 2 4 4 5 7 8 8 3 1 5 3 7 5 3 2 2 5 11 17 19 20 23 23 25 26 26 28 29 30 31 32 31 30 31 32 33 33 33 34 33 32 31 30 30 30 30 29 29 29 28 28 27 27 26 25 25 24 24 24 24 25 26 26 26 28 28 26 25 26 28 29 30 30 29 28 27 26 26 27 27 26 26 25
3 2 4 3 3 2 2 2 2 4 2 2 1 0 6 5 3 5 5 7 3 3 0 7 5 3 4 5 3 3 3 11 16 18 20 23 24 26 27 26 28 29 30 29 31 31 30 31 32 33 34 33 35 36 35 34 33 32 32 31 30 30 30 30 30 29 28 28 28 28 27 27 26 26 26 27 27 27 28 29 29 28 29 30 31 32 32 31 29 28 28 28 28 28 28 28 27
3 3 5 3 2 2 1 2 3 4 2 2 2 2 8 7 4 6 4 3 3 5 2 5 6 3 4 6 7 6 8 13 16 18 21 24 25 28 29 29 28 29 31 29 29 30 29 30 31 31 32 31 33 35 35 36 35 34 35 34 33 32 31 31 31 31 30 29 30 31 30 30 30 29 29 29 29 29 29 29 30 31 32 32 32 33 34 33 31 30 30 29 29 29 29 29 29
3 4 4 3 1 1 1 1 3 2 3 3 4 0 9 4 4 5 5 8 8 6 7 4 5 7 7 8 11 11 12 15 17 20 23 26 26 27 29 30 28 28 30 29 27 29 29 29 30 30 31 31 32 33 34 36 34 35 36 37 37 35 34 33 33 33 33 32 32 32 32 33 33 33 32 31 30 30 30 30 30 31 33 34 34 34 35 35 33 33 32 31 31 31 30 30 30
5 3 4 2 0 1 2 5 5 3 3 3 4 1 10 6 2 4 5 11 9 9 9 7 8 8 8 12 14 14 16 18 20 22 24 24 24 24 24 25 27 25 26 27 26 27 28 27 28 28 30 31 33 33 33 35 33 33 36 37 39 38 38 36 35 36 36 35 35 34 33 34 34 34 33 32 32 31 30 30 30 31 32 35 36 36 36 37 36 34 34 34 33 32 32 32 32
4 3 3 1 4 1 2 5 5 3 5 3 4 1 6 8 7 4 4 3 6 10 6 5 8 7 8 11 13 15 18 20 21 22 20 19 18 17 16 18 22 22 21 23 23 23 26 26 25 26 29 31 33 33 33 34 33 33 34 36 38 38 39 39 38 38 39 37 36 36 35 35 34 34 33 33 32 32 31 31 31 31 32 33 35 36 37 38 39 38 36 36 35 34 33 34 34
2 3 3 4 5 1 3 3 5 5 7 5 3 2 3 4 6 4 8 7 3 8 6 4 6 6 6 7 11 16 18 19 19 19 17 15 14 14 13 13 16 20 18 18 20 21 25 26 23 23 26 29 31 32 33 33 33 32 32 34 36 36 37 38 38 40 41 40 37 36 36 35 35 35 34 33 32 32 33 33 33 32 32 33 33 35 37 39 40 41 39 38 37 36 35 36 36
1 2 3 6 4 2 3 4 5 4 6 7 4 2 4 2 3 6 12 8 1 6 8 8 10 10 8 6 9 14 16 16 16 17 15 12 12 12 13 12 11 16 17 16 18 19 24 26 23 22 25 28 31 31 32 32 32 32 32 33 34 33 35 35 37 39 41 41 39 36 36 36 37 36 35 33 33 33 33 33 34 34 33 34 34 35 36 38 41 42 40 40 40 39 38 38 37
1 2 4 5 3 3 4 5 4 4 4 5 4 3 3 1 4 6 11 7 5 7 7 9 11 11 9 8 9 11 13 13 13 13 11 9 8 9 13 13 10 13 17 17 17 18 23 26 25 24 25 29 30 31 31 31 32 32 32 33 33 33 33 33 35 37 38 39 38 37 39 40 39 37 34 33 33 33 33 33 34 34 34 34 34 34 35 36 39 41 41 41 42 41 41 41 40
1 4 2 3 3 3 4 4 2 4 6 5 4 2 2 5 4 3 5 4 5 6 7 10 10 11 13 11 10 9 9 10 11 11 9 7 6 6 10 12 12 13 17 17 16 18 23 26 26 25 26 29 30 30 31 31 32 32 33 33 33 33 32 32 34 34 35 36 36 37 39 40 41 38 34 34 34 34 35 34 33 34 35 35 34 34 35 35 36 40 42 42 43 43 43 42 42
3 3 3 2 3 3 5 5 3 5 6 2 3 4 3 6 5 3 3 3 5 9 10 12 13 14 14 11 8 8 9 10 10 9 8 6 5 5 7 11 11 12 16 17 16 19 23 24 24 24 26 29 30 31 31 32 33 33 34 34 34 34 34 34 34 33 33 33 34 35 36 38 40 38 37 36 36 36 36 34 34 35 35 35 35 34 35 35 36 38 41 42 43 44 43 43 43
3 3 3 2 2 2 4 5 6 6 4 1 5 4 5 7 5 4 4 5 7 9 10 11 12 12 11 9 8 8 9 10 10 8 6 6 7 6 6 10 12 13 16 17 17 20 23 23 23 24 26 28 29 31 32 33 33 34 34 35 35 35 36 36 36 34 33 33 33 33 35 36 37 37 37 38 39 38 36 34 36 36 35 35 36 35 34 34 35 37 40 43 44 44 44 43 43
3 3 2 2 4 3 2 4 5 6 3 3 6 2 3 5 5 4 4 7 8 9 10 9 10 9 8 8 7 8 8 8 8 7 5 5 8 9 9 11 13 14 17 17 19 22 22 22 23 25 26 28 30 31 32 32 32 33 33 33 34 35 37 38 37 37 35 35 34 34 34 35 36 36 37 38 38 38 37 37 37 36 36 35 35 36 35 34 35 36 38 41 43 43 44 44 43
2 1 2 2 5 5 2 3 4 4 2 3 6 1 4 4 0 1 6 8 9 10 9 8 9 9 8 7 7 9 9 8 8 6 4 4 8 11 11 12 13 15 16 17 19 21 21 21 23 25 26 28 30 31 31 31 31 30 30 30 31 34 36 37 37 37 37 37 36 36 35 35 36 36 37 37 37 37 37 37 37 37 37 37 35 36 36 36 36 36 37 39 40 42 44 45 44
1 2 5 6 5 5 3 4 4 4 1 3 8 3 3 2 3 5 11 10 10 12 10 8 8 8 8 8 7 8 8 8 7 5 3 4 8 11 11 12 13 14 15 17 19 20 19 21 23 25 26 28 30 31 31 31 31 30 29 30 32 34 36 35 35 36 36 37 37 37 37 37 37 37 37 38 38 38 37 36 36 37 38 38 37 36 36 37 38 37 37 38 39 41 43 45 45
1 2 4 8 8 6 5 3 4 5 3 4 8 3 1 6 6 5 13 12 9 11 10 8 8 7 7 7 6 6 8 8 6 5 4 5 8 12 13 12 12 13 14 15 18 18 19 21 23 25 26 27 29 30 31 31 32 32 32 33 35 37 38 37 36 36 35 36 36 36 37 38 38 38 38 39 39 39 38 36 35 35 37 38 38 38 38 38 37 37 38 37 39 40 41 43 41
1 2 1 4 7 6 6 1 3 5 4 5 6 2 5 10 9 5 12 13 11 10 9 8 8 7 6 6 6 6 7 8 7 6 6 7 10 13 15 14 13 13 12 14 16 17 19 22 23 25 25 27 30 31 33 33 34 34 35 36 37 39 40 39 38 37 36 35 35 35 37 38 39 39 39 40 41 40 39 37 36 35 35 37 39 39 38 38 36 36 37 37 38 39 40 42 40
0 1 2 2 3 5 7 1 5 5 3 5 5 4 7 9 8 8 12 13 14 12 10 9 8 7 6 6 6 5 7 10 8 7 7 10 12 14 15 15 14 13 11 13 16 16 20 23 23 24 26 29 32 34 35 35 35 36 36 37 38 39 39 39 38 37 37 36 36 36 36 38 39 39 40 40 42 42 40 39 37 36 35 36 38 38 38 37 36 36 36 35 37 38 39 41 41
2 2 3 3 1 5 9 2 7 6 2 3 5 4 7 7 7 10 11 12 13 12 10 10 9 8 7 6 6 5 6 10 9 6 7 11 13 13 14 14 14 13 12 14 15 17 21 23 22 24 28 32 33 34 35 34 35 36 36 36 36 38 38 38 38 37 37 37 37 39 40 41 41 41 42 42 42 42 41 40 39 38 36 35 36 37 37 37 36 36 36 34 35 37 38 39 40
3 2 3 4 2 3 6 3 4 5 2 2 5 5 7 6 6 9 10 11 11 10 10 10 9 9 8 6 6 6 5 7 7 6 8 10 12 12 12 13 14 14 14 15 16 19 22 21 22 26 31 33 33 33 33 33 34 34 34 34 35 37 38 37 36 36 36 37 40 42 44 44 44 44 44 43 42 42 42 42 41 39 37 36 35 36 36 36 35 35 36 35 33 36 38 37 37
4 3 2 4 4 3 4 5 4 2 3 5 5 7 10 5 6 10 10 11 11 11 12 11 10 8 7 7 6 6 6 5 6 7 8 10 12 11 11 12 14 15 16 17 19 20 21 20 22 28 31 32 32 31 31 32 33 33 32 32 34 36 36 35 36 38 38 39 41 43 44 44 44 42 41 41 40 41 42 42 41 40 38 36 34 34 35 36 35 33 34 36 35 35 37 36 36
4 4 3 4 4 4 5 5 4 2 4 7 4 7 13 6 6 11 10 10 12 12 11 10 9 8 7 7 6 7 7 5 8 10 10 10 11 10 10 12 13 14 16 19 21 21 19 19 24 29 31 31 31 31 32 33 34 33 32 33 34 34 36 37 38 40 41 41 43 45 45 42 40 39 40 41 40 40 41 40 40 40 39 37 34 33 34 34 35 34 33 36 37 37 38 38 39
6 5 4 5 5 7 7 6 6 4 4 9 9 10 13 8 7 11 10 9 10 9 8 7 8 8 7 7 6 7 6 6 10 13 10 9 10 9 9 12 13 15 17 19 20 20 18 20 25 29 30 31 31 32 34 35 34 32 32 33 34 35 38 39 39 40 42 42 43 43 42 39 39 41 41 41 40 40 40 40 40 41 40 37 34 33 33 33 34 35 34 33 35 37 38 39 39
4 3 4 6 5 8 8 6 6 2 3 9 10 10 13 10 9 12 10 9 9 9 9 9 9 8 8 8 8 8 7 7 11 14 10 9 9 8 9 11 13 15 16 17 18 18 18 22 26 28 28 29 30 32 32 32 31 31 31 31 33 35 37 39 39 39 41 41 41 41 40 40 41 42 40 41 42 41 40 40 40 40 39 36 35 34 34 33 34 35 33 32 30 31 35 36 38
3 3 4 6 5 8 10 6 5 0 3 7 6 6 11 10 9 9 9 10 13 14 14 13 13 11 9 9 9 9 6 5 9 11 8 8 7 6 8 11 12 13 14 15 17 17 19 23 25 25 25 26 28 29 29 29 27 28 30 31 34 36 36 37 39 39 39 39 38 40 41 42 43 42 41 42 44 42 40 40 39 39 38 37 37 37 35 32 33 34 31 30 28 26 29 33 37
2 1 1 5 4 5 8 6 4 1 2 5 7 7 8 9 10 9 11 13 14 16 16 15 16 14 11 10 10 9 7 5 7 9 6 7 6 5 7 9 9 10 12 13 15 16 19 21 22 22 22 24 27 28 28 27 27 28 30 32 35 37 37 37 37 37 37 39 40 40 41 42 44 45 45 43 42 41 40 40 40 39 38 39 39 37 35 33 32 32 30 28 27 25 27 32 35
3 3 1 5 4 2 5 5 5 3 3 5 9 10 7 7 10 11 12 14 13 12 12 10 11 13 12 11 9 9 9 7 7 7 6 4 5 4 4 7 7 9 11 12 14 16 18 19 19 19 20 23 27 28 27 27 29 31 32 34 35 35 37 39 39 38 37 39 41 40 40 41 41 43 43 41 40 41 42 42 42 41 39 39 39 38 37 36 32 30 30 26 23 23 23 29 35
4 5 5 7 7 6 7 4 5 5 4 5 8 10 6 7 12 13 6 7 10 7 8 8 8 9 9 8 8 8 9 7 7 7 6 4 4 2 2 5 6 8 10 11 13 15 17 17 17 18 20 24 26 27 28 29 31 33 35 37 36 35 35 36 37 40 42 43 42 43 43 42 40 40 39 38 39 42 44 44 43 41 39 38 39 39 39 38 34 30 29 26 21 20 20 25 33
5 5 9 10 9 9 7 6 6 4 4 4 4 5 6 3 8 11 1 3 9 6 8 12 10 8 8 8 8 8 7 7 6 6 6 5 4 2 1 4 6 6 8 11 13 15 16 15 15 18 21 24 26 27 28 30 30 31 33 33 34 33 34 33 32 36 41 44 45 46 46 44 41 39 38 38 38 40 41 42 42 40 39 38 37 39 39 39 36 32 28 25 21 19 19 21 28
3 5 6 6 6 5 5 5 4 2 3 3 2 1 8 2 4 10 4 6 11 7 9 12 10 10 9 8 8 7 7 6 5 5 6 5 4 3 3 4 5 5 7 10 12 14 14 14 16 19 22 24 27 28 28 29 30 30 30 29 30 29 31 36 37 37 38 41 45 46 45 43 41 39 39 39 38 38 39 40 41 40 39 37 35 37 39 39 37 34 27 24 22 19 18 19 23
3 4 4 4 2 4 4 2 2 3 2 6 2 4 7 7 6 8 7 9 11 9 11 11 10 12 10 8 8 8 8 7 6 6 5 6 5 5 4 5 4 3 6 10 12 14 14 15 17 20 22 25 27 28 27 28 28 29 30 29 29 28 29 35 40 40 40 41 43 45 45 43 41 38 38 39 38 37 38 40 42 41 39 36 34 35 38 39 38 33 26 23 21 18 19 20 23
5 5 4 1 2 4 3 2 5 2 3 8 6 6 4 9 5 3 2 7 11 12 14 13 13 14 11 9 9 8 8 7 7 6 6 7 6 5 5 5 4 3 6 10 12 14 14 15 17 20 23 25 26 27 27 27 27 27 28 28 29 30 31 33 36 38 40 42 43 45 44 43 41 39 37 37 38 37 38 40 40 40 40 38 36 35 36 38 38 33 26 23 21 19 19 20 24
3 3 2 2 1 1 1 1 3 2 2 10 8 7 4 8 3 1 1 5 11 12 13 12 13 12 10 9 9 9 8 7 7 7 8 9 7 6 6 5 5 4 8 11 13 14 14 14 16 19 24 25 26 27 26 26 26 26 26 27 28 31 33 35 35 36 38 39 42 45 44 42 41 40 39 37 37 38 38 39 38 39 39 38 37 34 34 36 36 33 28 24 22 20 19 20 23
2 4 3 5 4 2 3 1 2 3 3 10 8 11 8 6 3 5 4 6 9 10 8 9 12 12 10 10 10 9 8 7 7 6 8 10 9 7 6 6 6 6 9 11 13 13 13 14 17 21 25 26 26 27 26 25 26 26 26 26 28 31 34 35 35 36 38 38 40 43 43 42 41 40 39 39 38 38 38 39 39 38 39 38 36 34 33 34 34 33 30 25 23 21 20 20 23
3 4 4 4 5 4 4 4 3 2 6 7 5 9 9 7 6 5 8 8 7 8 9 13 17 15 12 11 10 9 8 7 7 6 7 8 8 7 6 6 6 7 10 12 14 13 13 16 20 24 26 27 26 26 26 26 27 26 26 26 28 31 32 32 33 35 37 38 38 40 40 41 42 41 41 41 39 37 38 40 40 39 38 36 34 32 32 33 33 35 33 28 24 22 21 20 22
4 3 4 3 4 4 3 3 0 3 7 4 2 3 5 10 10 8 12 13 8 8 9 14 17 15 14 13 10 8 7 7 7 6 6 5 6 7 7 6 6 8 11 12 13 13 14 19 22 24 26 27 27 27 27 27 27 26 26 27 30 31 31 30 31 33 35 36 36 38 38 40 43 44 42 41 39 37 38 40 41 39 37 34 34 34 34 32 32 34 35 31 26 23 22 21 22
4 4 3 2 0 3 4 4 3 5 7 3 3 2 4 9 9 10 14 12 8 8 9 11 13 16 16 14 10 8 8 7 7 6 5 5 6 8 7 6 7 9 12 12 13 13 16 20 22 24 26 27 27 27 28 28 28 28 27 28 30 31 31 30 30 32 33 35 36 38 40 41 43 45 43 41 40 38 38 39 40 38 36 35 36 36 34 33 32 35 36 33 29 24 23 23 23
4 4 4 4 3 2 4 4 5 7 7 4 2 2 5 5 3 6 8 7 4 5 6 5 8 13 12 10 9 8 8 7 6 6 5 6 7 8 7 6 8 11 12 12 13 15 18 21 23 24 26 29 29 30 30 30 30 30 29 29 30 30 30 30 31 32 33 35 38 40 42 42 42 44 44 42 39 38 38 39 39 38 36 36 36 35 35 35 34 36 38 34 31 26 24 24 23
2 3 4 2 4 5 3 3 4 4 7 6 3 3 6 4 2 2 1 3 3 1 4 8 9 11 10 8 8 8 7 7 6 5 5 6 8 8 7 8 10 11 11 12 14 17 20 23 23 24 26 29 31 31 31 32 32 32 31 30 30 29 30 31 33 34 34 36 39 41 43 43 43 43 43 41 38 37 37 38 39 38 37 36 36 35 35 36 35 35 37 34 31 28 25 25 24
2 2 3 5 4 5 2 4 1 2 4 6 3 6 7 2 4 1 4 3 2 2 4 9 11 11 11 9 8 7 7 7 6 6 5 6 7 8 9 10 10 10 11 12 14 19 22 23 23 25 27 29 31 31 32 33 33 34 34 32 30 30 31 33 34 36 37 38 40 41 42 43 42 42 42 40 38 37 36 36 38 39 38 37 36 35 34 35 34 33 35 35 32 30 27 26 25
5 3 5 3 2 3 2 1 3 1 5 6 2 9 11 4 4 2 4 2 3 3 5 8 9 10 10 9 8 8 8 7 6 6 5 5 7 9 10 9 9 11 10 10 15 20 22 22 23 25 27 30 31 32 32 32 32 34 34 34 33 32 33 34 36 37 38 39 40 41 43 43 42 41 41 40 37 36 35 36 38 39 38 36 34 35 35 34 33 32 33 35 35 32 29 27 26
4 3 3 2 2 2 2 2 2 2 5 7 5 10 13 8 5 2 4 8 9 7 6 8 10 11 10 9 8 8 7 6 5 5 4 5 8 10 8 8 10 9 8 11 16 20 22 23 24 25 26 29 31 32 33 32 32 32 33 34 34 34 34 35 36 37 37 38 40 42 42 42 42 40 39 38 36 36 35 36 37 36 36 36 36 37 35 33 33 32 32 34 35 32 29 27 26
2 1 2 0 3 4 3 2 2 3 5 8 7 9 10 6 5 7 10 12 12 11 9 11 14 13 10 9 9 8 7 6 5 5 5 6 7 7 7 8 9 7 8 13 17 19 21 23 24 25 27 29 30 31 32 33 33 33 34 35 34 34 35 36 37 37 38 39 39 40 40 40 40 39 37 37 36 36 35 35 35 36 36 36 36 36 34 33 33 31 31 32 33 33 29 27 25
3 2 2 3 2 1 1 2 2 3 6 7 5 10 11 3 4 7 11 13 13 14 14 14 13 11 10 9 9 8 7 6 5 5 5 5 5 6 8 8 7 7 10 15 18 19 21 22 23 25 27 29 30 31 31 32 34 34 35 36 36 37 37 37 38 38 38 40 39 39 39 39 39 38 37 37 36 35 35 35 35 35 34 34 34 36 35 34 32 31 30 30 31 32 29 26 23
6 6 7 7 5 2 2 5 3 3 6 6 3 12 14 3 3 6 8 10 11 14 15 13 11 11 10 9 9 8 7 6 6 6 4 3 5 7 8 8 7 9 12 16 18 20 21 22 23 24 26 28 30 31 32 32 33 34 35 36 37 38 38 38 39 39 39 39 39 39 37 37 37 37 36 35 35 35 34 34 35 35 35 34 35 37 37 35 31 30 30 29 30 31 28 25 22
Wind_Direction
52 110 108 122 251 344 10 66 61 0 75 82 28 77 313 275 110 73 62 28 54 280 243 185 18 79 102 116 125 102 60 34 358 84 129 313 0 13 18 29 31 38 41 42 39 38 33 25 20 9 1 351 336 320 310 299 290 281 278 274 269 269 268 265 267 268 265 263 259 258 256 255 256 257 253 254 262 268 271 273 277 281 289 291 295 298 291 283 285 284 282 279 274 270 269 271 267
55 117 101 82 263 33 229 76 88 8 53 74 333 125 233 334 54 115 142 129 180 228 206 107 60 79 108 127 112 76 47 20 15 92 98 2 16 19 19 26 31 40 43 43 40 39 36 32 28 13 2 350 337 324 312 300 292 284 281 276 273 273 273 273 276 277 274 271 266 265 261 254 253 253 252 249 252 262 268 269 272 273 277 281 284 288 286 283 281 281 281 279 275 270 266 268 268
57 120 87 90 114 73 104 42 96 78 73 114 276 255 327 38 116 189 192 164 197 199 122 71 59 49 83 79 50 67 56 13 24 16 54 18 5 4 19 32 36 42 44 45 42 40 36 33 30 22 15 6 356 337 322 313 305 298 290 285 283 278 277 275 277 280 278 276 271 269 264 257 252 252 256 253 248 258 268 271 274 274 276 276 274 277 281 279 278 279 278 276 273 269 263 263 265
38 79 320 134 85 34 62 49 122 112 113 163 226 265 275 169 178 214 222 223 224 143 98 66 58 0 53 62 33 74 53 317 20 8 358 14 16 23 33 39 40 44 44 43 42 41 37 32 29 26 23 17 13 4 352 340 325 312 303 302 298 288 287 283 280 280 277 275 272 271 266 261 258 258 261 257 250 256 267 271 272 274 277 278 274 272 273 272 273 274 274 274 274 272 266 259 258
0 309 278 90 83 33 86 67 90 98 168 181 146 254 250 199 184 194 230 284 297 71 93 96 98 39 68 58 15 74 341 279 11 15 16 24 40 45 43 44 44 46 45 44 42 41 37 33 30 26 25 22 18 15 11 5 358 344 325 312 304 299 298 295 292 290 284 279 277 277 273 268 265 269 269 264 263 263 265 268 270 272 275 278 276 272 268 268 267 266 268 270 268 267 265 259 257
19 86 100 59 96 137 84 69 84 88 216 165 144 238 238 216 174 151 166 297 10 60 80 87 109 114 89 66 61 65 355 1 13 16 30 40 50 50 47 49 48 47 46 46 44 43 39 35 33 29 28 26 23 20 17 13 10 5 356 341 325 313 306 302 302 302 294 286 283 283 278 270 269 273 273 270 270 268 265 265 266 268 270 274 276 275 270 268 266 265 265 263 259 256 258 256 257
13 66 53 52 37 44 85 106 128 145 232 156 159 198 224 220 160 134 152 153 53 51 73 94 116 103 74 114 77 33 28 38 29 37 50 52 53 51 49 50 51 50 47 47 45 44 41 37 35 33 31 29 29 27 23 19 15 11 7 2 354 341 328 316 311 309 303 296 292 290 282 274 273 273 272 271 269 267 266 265 264 265 267 270 273 273 272 269 267 267 265 264 263 260 260 256 255
1 53 52 81 36 25 88 118 154 176 123 159 180 192 215 200 146 126 140 129 94 56 78 124 114 87 34 80 87 12 29 42 54 59 59 58 56 54 51 50 51 50 48 48 46 44 41 38 37 37 36 34 33 31 28 24 21 16 11 7 4 358 350 339 329 322 316 310 304 299 289 276 275 276 274 274 273 270 268 266 266 266 267 269 269 269 270 269 266 265 264 266 267 267 265 260 256
78 70 53 83 71 37 68 79 90 190 186 282 240 216 221 152 114 109 108 78 95 69 71 161 106 95 109 78 91 359 22 41 64 65 61 59 58 58 54 51 51 50 50 48 46 44 42 39 39 40 39 38 36 34 31 28 24 20 16 12 7 2 358 352 346 340 331 324 317 311 302 286 281 278 276 275 273 271 270 268 268 269 269 268 269 269 266 266 266 264 262 262 265 268 267 263 258
54 45 93 84 74 62 45 99 72 152 220 251 248 271 266 99 73 82 104 88 89 85 73 83 76 108 132 86 92 7 13 41 66 66 61 59 59 59 55 50 50 50 49 47 45 44 41 39 39 39 38 37 37 36 34 31 27 23 19 16 11 6 2 357 353 350 345 339 329 322 317 304 296 290 282 279 273 271 274 274 272 272 272 271 271 271 267 264 265 265 263 260 259 262 264 265 260
34 351 90 79 65 94 151 168 129 155 251 313 325 298 260 126 87 64 83 92 85 108 115 59 81 119 111 83 70 16 30 52 62 63 60 60 61 59 55 50 48 48 47 45 45 42 40 37 36 36 34 33 34 35 34 32 29 26 22 19 15 10 6 2 357 353 350 347 341 333 326 318 313 308 298 289 282 280 281 280 277 274 274 274 272 270 268 265 263 262 262 260 258 258 259 261 262
66 332 61 85 111 157 169 150 162 193 295 351 347 300 14 90 97 99 80 82 59 95 68 13 135 142 87 88 224 15 36 51 56 63 66 63 62 60 58 53 48 46 45 44 42 41 38 33 31 30 28 28 28 30 30 29 27 26 23 20 17 14 10 5 0 355 351 348 346 342 336 329 324 319 311 302 292 287 283 280 279 277 275 275 273 269 267 264 263 261 259 259 258 258 258 259 259
99 130 75 93 167 145 131 136 178 180 333 337 183 286 58 63 95 135 99 64 19 71 19 325 156 114 85 127 103 5 22 47 64 69 70 66 63 62 59 54 48 44 43 42 39 37 35 32 27 23 21 21 22 22 24 23 22 22 20 17 15 13 11 7 4 359 354 350 345 343 340 337 333 328 321 313 304 297 291 284 280 280 279 279 275 271 267 264 262 261 260 260 259 257 259 259 257
109 148 100 97 16 112 135 127 173 127 42 280 239 286 39 58 98 126 103 72 15 54 14 333 116 97 104 139 59 315 8 55 73 74 72 67 63 60 57 53 48 42 40 39 37 34 31 29 24 20 17 15 14 15 16 17 16 16 14 12 11 10 8 6 5 3 359 355 349 344 340 336 335 332 328 324 317 310 302 294 286 283 281 282 280 276 271 265 262 261 261 262 261 258 258 260 258
104 123 91 95 19 37 119 120 152 122 142 282 289 134 67 41 79 87 85 102 27 297 139 15 23 106 138 142 143 212 76 74 78 75 72 67 61 57 54 51 47 41 37 35 33 30 28 25 22 21 16 13 11 9 10 12 12 11 9 8 8 7 6 5 3 2 0 359 356 351 345 340 336 333 331 328 325 321 315 305 296 289 283 282 282 280 274 267 263 260 261 264 263 259 257 259 260
106 105 66 75 34 49 88 81 96 94 183 251 275 140 80 20 23 72 349 115 99 339 46 16 359 93 113 126 145 148 100 84 81 74 68 61 56 53 47 44 42 38 35 33 30 26 26 24 20 19 16 14 10 9 9 8 9 8 6 6 6 6 4 3 1 0 359 357 356 353 350 347 344 340 336 331 328 326 323 317 307 297 287 283 281 279 275 268 262 260 261 262 262 260 258 258 260
62 79 62 56 41 87 148 140 143 137 219 261 300 90 104 44 12 90 17 56 91 43 57 48 30 77 96 121 133 121 97 86 79 70 61 54 49 46 41 37 35 33 31 31 29 23 23 22 18 15 14 13 11 12 11 9 10 7 5 5 5 5 3 2 0 359 357 355 353 351 350 349 347 344 341 337 332 327 325 323 317 306 294 287 281 278 274 268 259 258 262 261 260 260 259 258 258
54 80 74 47 247 106 178 177 185 154 149 237 290 97 120 132 169 140 54 51 81 74 62 66 64 68 95 118 121 105 90 80 73 69 62 54 48 43 38 34 31 28 26 27 28 24 21 20 17 13 12 12 12 14 12 12 13 9 7 5 4 4 3 2 1 358 356 354 352 352 351 349 346 343 341 339 336 332 327 324 321 314 304 294 285 279 276 271 263 260 261 260 260 260 259 258 257
81 112 71 250 205 179 228 172 169 155 152 206 273 183 126 148 166 144 107 108 102 90 72 70 84 81 92 106 106 95 84 75 70 71 69 62 55 48 41 36 32 26 23 24 25 25 22 19 17 14 13 12 12 13 12 13 14 11 8 5 4 3 2 2 359 355 355 354 353 353 352 349 347 344 341 340 338 335 331 327 324 319 313 306 296 285 276 272 269 265 262 260 259 260 258 258 257
117 107 66 248 210 165 283 181 165 181 159 152 221 209 90 148 163 121 127 147 138 126 141 130 128 140 122 107 98 91 82 74 72 72 73 73 65 56 45 37 35 27 22 21 22 25 21 18 19 15 14 13 11 12 10 11 12 11 8 5 3 2 0 360 356 353 353 354 353 352 350 348 346 343 342 340 339 336 332 329 326 322 318 313 309 298 283 272 267 264 260 258 258 258 256 255 256
120 120 157 225 194 141 253 207 168 166 147 145 173 120 82 129 126 128 138 129 204 190 184 171 161 159 146 131 106 94 87 78 73 72 73 78 75 66 51 40 40 30 24 22 21 23 19 18 19 15 14 12 11 10 9 9 9 8 6 4 2 0 358 356 354 351 350 351 351 348 346 345 344 343 342 341 339 337 334 331 329 326 322 316 313 307 295 281 270 263 259 257 255 255 254 253 253
86 262 197 201 166 141 224 219 189 160 116 108 126 126 142 107 70 134 145 143 208 201 190 167 153 150 146 140 120 102 95 86 77 74 71 77 78 73 57 44 46 33 27 25 21 21 17 17 18 16 14 12 11 9 8 8 8 7 4 1 360 359 357 354 352 349 348 347 347 344 342 343 342 342 341 340 339 337 335 332 329 326 323 319 314 308 302 293 280 267 260 257 255 254 254 253 251
105 289 274 212 172 134 199 208 209 154 103 103 150 147 105 88 79 131 136 169 192 152 145 143 137 141 135 126 121 111 107 106 97 87 78 80 79 81 63 48 47 35 28 25 23 21 15 16 17 16 14 11 11 9 9 8 6 4 2 360 358 357 354 352 349 347 345 344 343 341 339 339 339 339 338 337 335 334 332 330 328 326 323 320 317 311 304 298 288 273 262 257 255 254 253 253 251
120 255 300 242 175 143 189 178 158 127 103 152 157 109 137 149 146 104 95 143 131 120 128 131 131 133 126 119 121 124 128 128 122 111 94 79 72 88 75 53 51 40 30 26 25 22 16 16 18 17 15 13 13 11 9 8 5 3 0 359 357 355 353 350 347 344 342 340 339 337 336 335 335 334 333 332 331 331 330 329 328 326 324 321 319 315 308 301 293 279 264 256 255 253 252 252 250
123 220 282 274 215 172 188 164 137 120 107 100 92 107 196 178 141 102 128 138 122 125 125 127 130 128 126 125 128 130 127 130 137 138 114 78 61 71 72 53 49 40 31 28 26 21 17 17 19 19 16 14 13 11 9 6 4 2 360 358 355 353 350 346 343 341 340 338 336 334 333 332 331 329 328 328 328 328 327 326 326 326 325 323 320 317 313 306 298 288 272 259 253 251 250 250 248
205 208 272 313 305 292 194 166 145 135 142 98 76 11 226 163 109 85 173 160 137 134 130 137 136 134 138 135 140 137 128 133 144 146 122 75 48 47 54 46 42 38 31 30 27 20 18 18 19 17 13 11 10 9 8 6 4 1 359 357 354 350 346 343 341 339 338 337 335 333 331 328 327 324 323 323 324 325 323 322 323 325 325 324 321 317 314 310 303 298 285 267 252 248 248 247 246
231 238 272 263 286 288 220 180 183 144 153 121 114 203 210 190 115 162 202 178 150 139 141 153 140 143 151 147 152 140 134 138 136 133 118 73 42 38 44 42 39 35 31 31 25 19 18 17 15 13 11 10 8 8 6 3 2 359 357 355 352 349 345 342 340 338 336 335 333 332 330 327 324 321 319 319 319 320 319 319 319 321 322 323 322 317 314 311 306 301 295 281 262 250 248 246 245
291 325 313 302 312 298 235 178 199 153 164 147 121 127 203 210 287 206 184 172 161 148 149 161 147 152 157 154 158 147 143 136 131 138 127 83 49 39 41 42 36 33 33 31 22 17 16 14 12 11 11 10 8 7 4 1 359 357 355 352 349 348 345 342 339 336 334 332 331 330 328 327 324 320 317 315 315 315 314 313 314 315 318 320 321 318 315 312 309 303 298 291 277 260 250 246 244
310 14 324 305 348 327 258 187 190 163 180 172 121 65 245 214 248 194 162 161 161 150 153 164 157 162 164 158 162 162 154 140 149 163 129 89 60 45 42 39 32 30 34 28 18 16 14 11 12 11 11 11 9 7 3 0 357 355 352 349 348 346 345 342 338 335 332 329 329 328 327 326 324 320 316 313 312 310 308 308 308 309 313 316 317 317 316 313 310 306 301 295 286 271 255 247 243
294 28 48 306 359 326 279 100 148 159 179 178 149 281 250 224 235 173 155 160 157 156 165 170 166 169 168 163 163 169 170 167 175 161 120 84 63 50 43 38 30 28 29 23 15 13 12 10 10 10 12 11 9 5 2 359 356 353 350 348 347 345 343 341 337 334 331 329 327 326 325 324 323 321 317 313 310 306 303 303 303 304 307 311 313 315 316 314 309 306 304 299 289 275 260 250 243
282 8 37 3 9 287 295 25 140 161 206 154 138 254 255 244 237 182 169 167 162 167 174 174 175 174 170 169 165 171 185 184 176 152 119 83 66 55 47 42 36 29 24 17 10 9 8 9 10 11 13 9 6 4 1 358 355 352 349 347 344 342 341 339 337 335 331 329 327 325 325 323 321 320 317 314 309 304 300 298 298 299 302 305 308 311 314 313 310 306 304 302 293 278 263 252 242
34 10 327 338 172 271 305 303 162 180 252 130 137 243 265 259 229 186 175 173 169 171 180 180 180 178 175 176 171 174 192 191 183 154 119 88 73 65 56 50 43 34 24 11 4 5 5 8 12 12 10 7 5 2 359 358 355 352 348 344 342 341 340 339 338 336 333 330 328 325 323 322 319 316 314 312 308 303 298 295 294 295 298 300 303 307 310 311 310 306 303 302 297 286 268 252 240
359 45 280 273 215 279 315 315 212 199 216 211 192 230 272 267 208 185 180 180 174 173 184 185 184 183 177 179 179 179 193 198 192 159 123 101 87 76 64 54 45 37 27 16 7 5 5 10 14 11 9 6 3 0 358 357 354 350 346 342 340 340 340 340 338 335 332 329 325 323 321 319 316 313 311 308 305 301 298 294 291 292 295 295 298 303 305 307 308 306 304 302 299 294 279 256 239
329 13 309 260 232 253 290 304 299 187 189 236 214 226 257 256 174 187 190 181 179 183 188 187 186 185 179 183 184 186 191 195 188 166 141 118 97 82 65 50 40 34 27 21 14 8 9 15 15 10 7 4 1 359 358 356 351 348 344 342 340 340 339 337 333 330 328 327 324 323 322 320 318 317 316 313 306 301 298 294 290 291 292 292 293 298 301 304 305 304 303 303 301 298 289 269 246
276 295 302 291 272 249 249 274 289 168 212 248 227 243 257 248 180 200 199 183 190 195 189 186 186 182 183 185 186 191 192 196 187 169 152 127 100 80 60 43 34 29 24 21 15 10 15 19 13 7 5 2 360 358 356 352 349 347 344 342 340 338 335 331 330 329 328 328 326 325 326 325 323 322 320 318 311 305 301 296 292 292 291 288 289 294 297 299 303 303 302 303 302 299 296 285 259
232 256 247 264 277 272 254 249 257 205 229 256 238 246 258 243 204 208 204 190 199 202 186 187 190 186 189 188 192 192 191 207 189 170 155 129 99 75 55 37 28 24 21 18 13 13 21 17 8 5 3 1 359 357 354 350 348 346 344 341 338 335 331 329 329 329 329 328 327 327 326 323 321 319 318 317 312 307 304 299 295 293 290 285 285 290 293 294 299 302 302 301 303 302 300 295 276
218 250 246 247 241 271 273 259 273 205 197 259 243 243 257 250 223 212 202 191 201 203 194 197 195 192 192 190 194 192 197 208 183 171 156 125 99 74 50 33 25 21 18 14 12 18 20 11 4 4 3 1 359 355 352 349 347 345 341 338 334 331 330 328 328 328 328 328 327 326 324 320 318 317 317 316 313 308 305 304 300 295 290 283 284 288 287 289 294 298 301 299 299 303 298 297 290
216 230 261 279 233 255 275 272 290 170 175 265 270 257 258 255 243 221 192 190 206 203 197 199 195 195 196 190 194 194 200 201 181 180 158 116 97 75 47 32 23 17 13 11 13 16 11 4 2 2 2 359 356 352 349 347 345 341 337 333 331 329 328 327 325 326 327 326 326 324 322 321 320 318 316 316 314 309 305 304 302 298 292 287 286 285 283 285 290 294 297 297 296 298 294 291 292
201 190 264 289 255 268 291 298 323 30 187 273 288 275 258 257 257 233 198 199 212 208 202 200 192 191 193 189 191 190 193 196 189 192 167 118 97 82 46 28 22 12 11 13 14 11 3 359 360 0 360 356 352 350 347 343 339 337 335 332 330 328 327 326 323 323 325 324 324 324 323 322 320 318 315 315 314 310 307 305 303 300 295 290 287 282 282 282 284 289 292 294 296 296 296 292 288
208 181 200 269 276 294 286 310 346 321 266 265 278 276 255 250 259 246 214 205 216 214 208 207 196 194 192 188 188 181 184 190 185 193 186 134 103 93 43 19 12 8 11 14 11 4 356 355 357 358 356 352 350 347 343 338 335 335 334 331 330 328 326 326 324 323 324 323 323 324 323 322 319 316 314 313 311 310 309 306 304 301 297 293 287 280 280 281 279 284 289 288 291 294 297 298 291
259 206 203 247 269 251 245 291 339 321 304 281 290 291 256 217 237 248 230 202 221 210 192 203 206 203 193 187 192 185 184 183 175 187 200 165 127 115 29 5 358 4 10 10 5 354 349 351 353 353 352 350 347 344 340 337 336 336 335 333 332 330 326 325 325 324 324 323 322 323 323 321 319 315 312 310 309 308 307 306 304 302 300 296 291 282 277 277 276 279 284 282 280 287 290 294 295
296 237 214 232 252 256 269 325 353 342 322 317 351 312 273 205 225 249 272 193 224 197 189 203 199 199 195 192 196 191 192 189 176 176 181 171 159 183 317 345 344 355 7 4 354 345 343 345 348 348 347 346 344 342 339 336 336 336 336 334 331 328 324 321 321 320 320 320 320 321 321 321 319 315 311 309 308 308 307 306 304 303 301 298 295 289 278 273 274 275 278 277 272 278 284 287 290
293 257 206 209 229 254 283 334 353 294 269 296 63 266 274 273 218 243 224 213 226 204 205 209 195 197 197 193 189 185 192 189 177 170 167 173 186 213 270 320 326 341 359 354 343 338 338 341 345 344 342 343 342 340 338 335 334 333 332 329 324 320 315 313 315 316 315 316 316 317 317 318 317 314 311 309 309 308 307 306 305 303 301 299 298 294 284 275 271 272 273 271 270 270 275 280 282
241 244 128 128 203 251 271 314 285 245 277 292 227 165 271 275 245 243 209 211 234 220 216 213 199 203 197 190 189 184 189 182 169 171 174 190 203 222 258 297 309 328 343 340 337 335 337 339 340 339 339 341 340 338 335 333 332 330 327 323 317 313 309 308 312 314 313 313 314 314 315 316 315 313 310 309 309 307 307 305 304 303 300 300 301 299 291 281 271 268 268 264 265 263 261 269 276
244 213 142 135 216 234 254 265 267 288 28 294 249 146 258 271 255 285 196 216 241 230 219 212 202 204 193 184 191 190 191 182 168 167 182 197 207 227 249 277 282 297 327 331 333 333 335 335 333 336 338 339 338 335 332 329 328 326 321 317 313 311 309 307 309 310 311 312 312 312 313 314 313 312 309 308 307 306 306 305 304 303 300 299 301 302 299 289 272 263 263 260 257 257 255 259 269
233 160 138 355 31 215 274 270 276 24 59 267 251 155 216 269 225 116 48 236 243 235 222 211 204 204 189 181 191 194 190 181 171 169 184 195 204 228 249 264 261 286 321 326 330 331 329 326 330 337 338 336 334 331 329 326 325 322 317 314 311 311 310 309 308 308 309 311 311 311 312 312 311 311 309 307 306 306 305 304 303 302 301 299 299 301 304 298 280 263 259 259 255 252 253 252 259
123 71 25 354 1 22 33 39 66 57 256 256 234 178 197 272 241 175 199 221 221 220 212 200 204 201 187 187 192 189 181 175 176 178 191 203 214 232 250 254 254 292 318 324 328 326 319 324 336 338 335 334 331 328 326 323 322 319 314 313 311 311 311 309 308 307 309 310 309 309 310 310 309 308 307 307 306 305 305 303 302 301 301 298 297 297 301 302 295 279 264 256 253 249 250 251 254
86 63 38 353 327 4 23 358 48 81 255 258 223 188 195 241 246 206 228 238 217 208 196 195 202 195 184 191 192 184 177 171 172 181 201 214 228 241 249 248 258 295 312 321 323 318 322 334 341 337 332 331 328 325 324 321 320 317 313 312 311 310 308 306 304 304 306 308 307 307 308 308 307 306 306 306 306 305 304 302 301 301 299 296 296 298 299 300 300 295 277 257 250 252 250 250 252
77 79 60 12 323 351 351 304 346 216 249 253 150 172 213 242 247 236 241 247 234 215 204 201 197 184 181 190 188 180 173 170 172 184 206 215 227 239 243 246 264 294 307 313 316 323 336 340 339 333 328 327 325 323 322 320 319 316 313 311 310 309 306 302 300 301 303 304 304 304 304 305 305 304 305 304 304 304 303 301 300 299 298 298 300 300 299 298 299 300 288 264 250 252 253 251 251
132 143 136 147 2 337 292 273 280 274 271 259 117 123 257 265 258 235 239 250 243 222 216 209 189 175 182 185 177 174 169 173 180 185 204 211 221 232 236 247 273 294 298 305 321 337 341 337 335 330 324 324 324 322 322 321 319 316 312 309 308 307 304 301 299 299 300 301 301 301 300 300 300 300 301 301 302 303 301 299 297 296 296 299 300 298 297 299 298 301 294 271 253 253 257 255 255
174 159 140 159 160 211 260 258 269 292 298 270 149 145 235 252 265 236 249 278 284 236 209 177 166 169 175 170 163 170 173 179 186 188 203 215 224 228 232 255 276 283 291 313 337 343 337 332 331 327 323 324 324 323 322 321 318 315 311 308 307 306 303 302 300 299 299 299 299 299 298 298 297 297 298 299 300 301 299 297 295 294 295 296 297 295 296 299 298 300 299 280 256 254 260 257 256
217 128 117 187 184 186 237 244 231 286 309 277 218 220 227 225 272 272 308 341 1 9 138 133 150 163 161 164 170 174 177 184 190 195 211 225 230 229 235 256 268 281 306 335 344 339 333 329 328 325 323 324 324 323 322 319 316 313 310 308 307 306 305 303 301 300 299 299 299 299 298 297 297 296 297 297 298 300 298 296 294 293 293 293 293 294 295 296 297 298 300 289 264 253 259 259 256
166 129 187 222 174 145 203 283 305 71 283 271 243 263 274 300 286 295 70 55 46 75 146 149 159 167 165 172 177 176 180 186 191 195 207 223 228 231 241 255 273 305 334 343 337 332 328 325 326 326 324 324 323 321 319 317 315 312 310 310 308 308 307 305 303 302 302 302 300 299 299 298 297 296 296 297 298 298 296 295 294 293 293 292 291 291 292 294 295 295 297 294 278 258 256 261 257
134 182 221 208 118 97 114 275 321 67 251 265 253 270 276 277 279 329 73 161 213 189 178 164 166 175 177 180 180 181 185 188 195 200 208 219 225 233 246 272 311 335 340 331 326 325 323 324 327 327 324 323 320 319 317 314 313 311 310 311 310 310 309 307 305 303 303 303 302 301 300 298 297 296 296 296 296 296 295 294 293 292 292 291 290 292 292 292 293 294 294 295 287 269 257 261 260
137 208 232 140 162 247 125 149 261 255 260 270 271 282 277 247 230 239 190 207 208 195 186 181 187 189 185 185 185 186 188 188 194 204 217 224 228 240 264 310 333 335 318 315 320 321 323 327 329 326 323 320 318 316 315 313 312 310 309 309 310 310 309 308 306 305 304 302 301 302 301 298 297 297 296 295 295 294 294 294 293 291 291 292 292 292 290 290 291 292 293 293 290 276 260 260 263
74 306 306 4 180 205 185 157 207 234 263 275 286 298 284 235 186 198 203 204 195 184 188 197 199 195 188 186 184 185 190 191 193 200 215 225 234 262 304 325 323 310 303 313 319 321 325 329 328 326 321 318 317 316 315 314 313 312 311 310 310 309 309 309 307 306 305 303 303 303 301 299 298 297 296 294 294 294 293 293 292 291 291 292 292 291 290 290 291 290 290 290 290 282 265 260 265
161 193 237 240 200 193 260 218 168 203 257 269 281 281 273 226 161 196 197 201 195 181 188 203 202 193 191 187 180 183 189 188 194 202 212 230 258 296 316 315 303 296 305 315 320 324 328 328 326 323 320 317 317 316 315 314 313 313 312 311 311 311 311 310 309 308 306 305 305 305 302 300 299 297 296 295 293 293 292 292 291 290 289 290 291 292 291 290 289 289 288 289 293 287 271 261 265
176 186 198 203 201 190 270 257 200 181 239 234 250 273 268 221 165 202 186 195 196 183 191 203 196 190 191 188 184 185 185 186 198 207 208 236 274 294 304 303 296 299 311 319 324 327 328 326 324 321 319 317 316 316 315 314 313 312 311 311 311 311 311 311 310 309 308 307 307 306 303 301 299 297 297 295 294 293 292 291 290 288 287 288 289 291 290 288 286 286 287 289 292 290 278 265 264